Flag for Gambia Weather past 2 weeks in Farafenni, Gambia

Now
84 °F

Clear.


Feels Like: 94 °F
Forecast: 78 / 96 °F
Wind: 9 mph from Southwest

Location: Kaolack Airport

Current Time: Jul 26, 2014 at 3:12:26 AM

Latest Report: Jul 26, 2014 at 12:00 AM


Visibility: 10 mi

Pressure: 29.98 "Hg

Humidity: 79%

Dew point: 77 °F

Location of FarafenniLocation

Historic Weather in Farafenni — Graph

°F

Farafenni temperature yesterday

Maximum temperature yesterday: 97 °F (at 4:00 PM)
Minimum temperature yesterday: 79 °F (at 6:00 AM)
Average temperature yesterday: 86 °F

Past Weeks' High & Low Weather Summary

 TemperatureHumidityPressure
High106 °F (Jul 12, 4:00 PM)100% (Jul 17, 6:00 AM)30.09 "Hg (Jul 17, 6:00 AM)
Low73 °F (Jul 17, 6:00 AM)32% (Jul 12, 4:00 PM)29.83 "Hg (Jul 14, 4:00 PM)
Average86 °F72%29.97 "Hg
* Reported Midnight between Jul 10 and Jul 11 — Midnight between Jul 25 and Jul 26, Farafenni, Weather by CustomWeather, © 2014

Note: Actual official high and low records may vary slightly from our data, if they occured in-between our weather recording intervals... More about our weather records

Advertising

Farafenni weather history for previous 24 hours

 ConditionsComfort  
Time TempWeatherWind HumidityBarometerVisibility
12:00 AM
Jul 26
84 °FClear.9 mph79%29.98 "Hg10 mi
11:00 PM
Jul 25
84 °FClear.12 mph79%29.95 "Hg10 mi
10:00 PM86 °FClear.7 mph75%29.92 "Hg10 mi
9:00 PM86 °FClear.7 mph70%29.92 "Hg10 mi
7:00 PM93 °FPassing clouds.5 mph56%29.86 "HgN/A
6:00 PM93 °FPartly sunny.9 mph56%29.86 "HgN/A
5:00 PM97 °FPartly sunny.5 mph50%29.86 "HgN/A
4:00 PM97 °FPartly sunny.7 mph50%29.89 "HgN/A
3:00 PM95 °FPartly sunny.5 mph53%29.89 "HgN/A
12:00 PM90 °FSunny.7 mph63%29.95 "Hg10 mi
11:00 AM86 °FSunny.5 mph70%29.98 "Hg10 mi
10:00 AM84 °FSunny.7 mph79%29.95 "Hg10 mi
9:00 AM81 °FSunny.5 mph89%29.95 "Hg10 mi
8:00 AM79 °FSunny.No wind94%29.95 "Hg10 mi
7:00 AM79 °FSunny.No wind94%29.92 "Hg10 mi
6:00 AM79 °FClear.5 mph89%29.92 "Hg5 mi
5:00 AM81 °FClear.No wind84%29.92 "Hg5 mi
4:00 AM81 °FClear.No wind84%29.92 "Hg5 mi
3:00 AM81 °FClear.5 mph84%29.92 "Hg5 mi
Weather by CustomWeather, © 2014

See weather overviewHow to use our weather pages